Location: Unspecified
(41.1637°N, 24.2901°E)
Time: 08:45:47
(UTC+01:00)

ISS - Pass Details

Date: 23 October 2020
Orbit: 417 x 420 km, 51.6° (Epoch: 29 October)

Event Time Altitude Azimuth Distance (km) Brightness Sun altitude
Exits shadow 05:16:34 10° 197° (SSW) 1,491 -1.1 -17.0°
Reaches altitude 10° 05:16:35 10° 197° (SSW) 1,485 -1.1 -17.0°
Maximum altitude 05:19:30 28° 135° (SE) 804 -1.9 -16.5°
Drops below altitude 10° 05:22:27 10° 74° (ENE) 1,494 0.2 -15.9°
Sets 05:24:42 0° 63° (ENE) 2,361 1.2 -15.5°
